Location: Unspecified
(0.0000°N, 0.0000°E)
Time: 09:18:54
(UTC+02:00)

IUS-9 SRM-1 - Visible Passes

Search period start: 19 October 2017 00:00
Search period end: 29 October 2017 00:00
Orbit: 220 x 19636 km, 26.4° (Epoch: 18 October)

Date Brightness Start Highest point End Pass type
(mag) Time Alt. Az. Time Alt. Az. Time Alt. Az.
19 Oct 4.4 05:35:47 63° WNW 05:37:38 88° NNE 06:28:00 10° ESE visible
19 Oct 6.3 22:21:15 10° WNW 22:24:22 11° NW 22:26:39 10° NNW visible
20 Oct 5.2 04:37:14 48° ENE 04:37:14 48° ENE 04:58:07 10° ESE visible
20 Oct 6.0 20:48:07 10° W 21:21:43 25° NW 21:29:13 10° N visible
21 Oct 6.5 03:38:31 17° E 03:38:31 17° E 03:42:50 10° E visible
21 Oct 6.1 18:02:11 10° WSW 20:18:30 43° NW 20:28:59 10° NNE visible
24 Oct 5.4 06:26:38 25° W 06:33:39 62° SSW 08:59:53 10° ESE visible
25 Oct 4.5 05:27:17 67° WSW 05:28:38 76° SSW 06:16:47 10° ESE visible
26 Oct 5.2 04:27:47 50° E 04:27:47 50° E 04:47:25 10° ESE visible
26 Oct 6.1 20:40:30 10° W 21:10:40 22° NW 21:18:14 10° N visible
27 Oct 6.5 03:28:07 17° E 03:28:07 17° E 03:32:12 10° ESE visible
27 Oct 6.2 17:42:12 10° WSW 20:06:00 39° NW 20:17:05 10° NNE visible
